Regional Weather Roundup
Issued by NWS Newport/Morehead, NC

Current Version | Previous Version | Graphics & Text | Print | Product List | Glossary Off
Versions: 1 2 3 4 5 6 7 8 9 10 11 12 13 14 15 16 17 18 19 20 21 22 23 24 25 26 27 28 29 30 31 32 33 34 35 36 37 38 39 40 41 42 43 44 45 46 47 48 49 50

000
ASUS42 KMHX 312013
RWRMHX
WEATHER ROUNDUP FOR EASTERN NORTH CAROLINA
NATIONAL WEATHER SERVICE NEWPORT/MOREHEAD CITY NC
400 PM EDT TUE MAY 31 2016

NOTE: "FAIR" INDICATES FEW OR NO CLOUDS BELOW 12,000 FEET
WITH NO SIGNIFICANT WEATHER AND/OR OBSTRUCTIONS TO VISIBILITY

NCZ015>017-031-032-045>047-102-103-312100-
NORTH COAST

CITY           SKY/WX    TMP DP  RH WIND       PRES   REMARKS
EDENTON        PTSUNNY   81  67  63 E10       29.95S
ELIZABETH CITY MOSUNNY   78  68  71 E10       29.95F
KITTY HAWK     CLEAR     77  68  73 NE6       29.94F
MANTEO         PTSUNNY   73  70  89 E9        29.95F

$$

NCZ045>047-081-094-103-104-312100-
CENTRAL COAST

CITY           SKY/WX    TMP DP  RH WIND       PRES   REMARKS
FRISCO         PTSUNNY   76  70  82 NE10      29.93S

$$

NCZ095-097-098-100-101-312100-
SOUTHERN COAST

CITY           SKY/WX    TMP DP  RH WIND       PRES   REMARKS
BEAUFORT       PTSUNNY   80  73  79 NE10      29.91F
CEDAR ISLAND   NOT AVBL
JACKSONVILLE   CLOUDY    77  71  82 NE14      29.91S
PINEY ISLAND   NOT AVBL
WILMINGTON     LGT RAIN  78  72  81 E14G22    29.88S


$$

NCZ011>013-027>030-043-044-078>080-089-090>093-098-312100-
COASTAL PLAIN

CITY           SKY/WX    TMP DP  RH WIND       PRES   REMARKS
AHOSKIE        MOSUNNY   80  68  65 NE7       29.94S
CLINTON        CLOUDY    83  71  66 E7        29.91F
ELIZABETHTOWN  CLOUDY    75  68  78 E7        29.91R
GOLDSBORO      CLOUDY    84  71  65 E10       29.90S
GREENVILLE     CLOUDY    82  70  65 NE8       29.94F
HAVELOCK       RAIN      75  73  93 NE12      29.93S FOG
KENANSVILLE    CLOUDY    74  71  92 CALM      29.93F
KINSTON        CLOUDY    81  72  74 SE12      29.93S
NEW BERN       CLOUDY    74  72  93 NE6       29.93S
RICHLANDS      CLOUDY    74  72  93 N7        29.92F
ROCKY MOUNT    MOSUNNY   86  68  54 N8        29.92F
WASHINGTON     RAIN      73  71  92 E8G17     29.93R
WHITEVILLE     CLOUDY    78  70  77 NE9       29.89R

$$

AMZ130-135-150-152-154-156-158-170-250-252-270-ANZ085-086-088-633-658-670-312100-
MARINE OBSERVATIONS

STATION/POSITION TIME  TEMP    WIND        PRES    WAVE   SWELL
                       AIR SEA DIR/SP/G            HT/PER HT/PER
                 (UTC) (F)     (DEG/KT/KT) (MB)    (FT/S) (FT/S)
CHESAPEAKE LIGHT 2000   70      40/  4/  4 1015.4
64 E VA BEACH    1950   67 67   20/  8/ 10 1014.0    5/ 8   5/ 8
DUCK             1900   69 65   40/  6/  7 1014.1
2 E DUCK         1911      69                N/A     3/ 8
OREGON INLET     1900   71 72   50/  9/ 11 1014.2
13E OREGON INLT  2000      70                N/A     4/ 8   3/ 8
HATTERAS CG      1900   75 74   30/  9/ 12 1013.4
DIAMOND BUOY     1950   80 82  180/  2/  4 1013.4    4/ 8   3/ 8
CAPE LOOKOUT     2000   75      50/ 14/ 16 1012.5
BEAUFORT LAB     1900   79 75   70/ 10/ 14 1012.3
30 SE NEW RVR IN 1925      77                N/A     5/ 8
27 SE WRIGHTSVLE 1908   78 76   80/  6/ 10 1011.7
5 SE WRIGHTSVLE  1908   76 76   70/ 16/ 21 1012.1
225 S CAPE HAT   1950   77 77  160/ 12/ 14 1014.2    4/ 8   3/ 8
41 SE CHARLESTON 1950   76 78  250/  6/  8 1011.7    4/ 8   3/ 8

$$




USA.gov is the U.S. government's official web portal to all federal, state and local government web resources and services.